Regional Weather Roundup
Issued by NWS Sterling, VA

Home | Current Version | Previous Version | Text Only | Print | Product List | Glossary Off
Versions: 1 2 3 4 5 6 7 8 9 10 11 12 13 14 15 16 17 18 19 20 21 22 23 24 25 26 27 28 29 30 31 32 33 34 35 36 37 38 39 40 41 42 43 44 45 46 47 48 49

000
ASUS41 KLWX 011510
RWRLWX

REGIONAL WEATHER ROUNDUP
NATIONAL WEATHER SERVICE BALTIMORE MD/WASHINGTON DC
1100 AM EDT SAT AUG 01 2015

Note: "FAIR" indicates few or no clouds below 12,000 feet
with no significant weather and/or obstructions to visibility.
 TC=TEMPERATURE CELSIUS

 * =Non NWS site. Station does not report precipitation (e.g. rain,
    snow, etc.), thunder, or fog.

DCZ001-MDZ009-015-VAZ040>042-051-053>054-011600-
WASHINGTON METRO

CITY           SKY/WX    TMP DP  RH WIND       PRES   REMARKS
WASHINGTON NAT PTSUNNY   89  64  43 W7        29.89S HX  90
DULLES         MOSUNNY   83  63  50 NW8       29.90S
ANDREWS AFB    MOSUNNY   85  62  45 NW9       29.89S
FT BELVOIR     MOSUNNY   84  65  52 W7        29.89S
COLLEGE PARK*  PTSUNNY   82  61  47 W8        29.89R
LEESBURG*      SUNNY     84  66  54 NW10G16   29.92S
MANASSAS*      PTSUNNY   81  68  65 CALM      29.90S
GAITHERSBURG*  SUNNY     81  64  57 W9        29.94S

$$

MDZ006>007-011-014-011600-
BALTIMORE METRO

CITY           SKY/WX    TMP DP  RH WIND       PRES   REMARKS
BWI AIRPORT    PTSUNNY   81  62  52 W10       29.88S
MD SCIENCE CTR   N/A     83  61  47 MISG      29.88S
MARTIN STATE   MOSUNNY   82  66  57 CALM      29.89S
ANNAPOLIS      PTSUNNY   82  63  52 NW8       29.87S
FORT MEADE*    PTSUNNY   79  64  61 W8        29.91S

$$

MDZ012-015-019>023-011600-
MARYLAND EASTERN SHORE

CITY           SKY/WX    TMP DP  RH WIND       PRES   REMARKS
OCEAN CITY     SUNNY     87  64  46 W7        29.88S
SALISBURY      SUNNY     85  67  54 SW8       29.89R
BAY BRIDGE AP*   N/A     82  59  44 W8        29.88R
CAMBRIDGE*     SUNNY     84  63  48 W5        29.89R
EASTON*        MOSUNNY   86  64  48 NW8       29.92S

$$

MDZ017>025-011600-
SOUTHERN MARYLAND

CITY           SKY/WX    TMP DP  RH WIND       PRES   REMARKS
PATUXENT RIVER MOSUNNY   86  64  47 W6        29.89S
ST INIGOES     SUNNY     82  67  60 SW7       29.89S
LEONARDTOWN*   SUNNY     82  64  54 CALM      29.91S

$$

MDZ003>005-011600-
NORTH CENTRAL MARYLAND

CITY           SKY/WX    TMP DP  RH WIND       PRES   REMARKS
FREDERICK*     MOSUNNY   82  66  57 W6        29.93R
HAGERSTOWN APT CLOUDY    80  59  48 VRB3      29.91S
WESTMINSTER*   MOSUNNY   79  64  61 SW9       29.91S

$$

MDZ501>502-011600-
WESTERN MARYLAND

CITY           SKY/WX    TMP DP  RH WIND       PRES   REMARKS
OAKLAND*       MOSUNNY   70  64  83 NW5       30.03R
CUMBERLAND*    SUNNY     82  50  32 W7        29.96R

$$

VAZ025>031-011600-
SHENANDOAH VALLEY

CITY           SKY/WX    TMP DP  RH WIND       PRES   REMARKS
WINCHESTER*    PTSUNNY   84  61  45 NW9       29.93R
FRONT ROYAL*   FAIR      81  63  54 NW6       29.92R
LURAY*         FAIR      84  63  48 S3        29.94S
NEW MARKET*    FAIR      80  64  57 CALM      29.93S
STAUNTON*      SUNNY     83  62  48 NW6       29.98R
WAYNESBORO*    FAIR      78  63  60 SW7       29.98S

$$

WVZ021-048>050-054>055-011600-
EASTERN WEST VIRGINIA PANHANDLE

CITY           SKY/WX    TMP DP  RH WIND       PRES   REMARKS
MARTINSBURG    MOSUNNY   80  61  52 VRB5      29.92S
PETERSBURG*    PTSUNNY  N/A N/A N/A SW5       29.96S

$$

VAZ036>039-050-011600-
CENTRAL FOOTHILLS

CITY           SKY/WX    TMP DP  RH WIND       PRES   REMARKS
CHARLOTTESVILL SUNNY     83  64  52 S10       29.92S
CULPEPER*      PTSUNNY   82  67  60 W6        29.92R
ORANGE*        PTSUNNY   84  64  51 CALM      29.93S
GORDONSVILLE*  CLOUDY    81  64  57 SW7       29.92R
WARRENTON*     CLOUDY    81  70  70 CALM      29.91R

$$

VAZ055>057-011600-
NORTH AND CENTRAL PIEDMONT

CITY           SKY/WX    TMP DP  RH WIND       PRES   REMARKS
FREDERICKSBRG* SUNNY     87  66  49 SW3       29.89S
STAFFORD*      MOSUNNY   83  64  51 W5        29.94S

$$

NCZ024-NYZ072-PAZ021-071-VAZ022-071-011600-
OTHER REGIONAL OBSERVATIONS

CITY           SKY/WX    TMP DP  RH WIND       PRES   REMARKS
NEW YORK CITY  PTSUNNY   81  62  52 VRB7      29.83S
PHILADELPHIA   PTSUNNY   83  61  47 W13       29.85S
PITTSBURGH     MOSUNNY   77  57  50 W7        29.95S
ROANOKE        SUNNY     82  60  47 W13G20    30.00S
RICHMOND       MOSUNNY   87  63  44 CALM      29.91S
RALEIGH        MOSUNNY   86  63  45 VRB3      29.97R

$$

ANZ530>537-011600-
MARINE OBSERVATIONS

STATION/POSITION TIME  TEMP    WIND        PRES
                       AIR SEA DIR/SP/G
                 (UTC) (F)     (DEG/KT/KT) (MB)
THOMAS PT LIGHT  NOT AVBL
BALT KEY BRIDGE  1400   79     270/ 10/ 11 1011.4S
COVE POINT       1400   81     290/  6/  9 1012.6F
LEWISETTA        1400   79 82  290/  5/  6 1011.8F
SOLOMONS ISLAND  1400      83                N/A
PINEY POINT      1400          310/  4/  4   N/A

$$



USA.gov is the U.S. government's official web portal to all federal, state and local government web resources and services.